Hourly Data Report for September 21, 2017

All times are specified in Local Standard Time (LST). Add 1 hour to adjust for Daylight Saving Time where and when it is observed.

PORT ALBERNI (AUT)
BRITISH COLUMBIA

49°18'59.700" N
124°55'36.600" W
76.20 m
1036B06
71475
WQC

Related Data

No related data is available for this station

Download Data

Hourly Data (September 2017)
Hourly Data Report for September 21, 2017
Temp Definition
°C
Dew Point Temp Definition
°C
Rel Hum Definition
%
Wind Dir Definition
10's deg

Wind Spd Definition
km/h
Visibility Definition
km
Stn Press Definition
kPa
Hmdx Definition


Wind Chill Definition


Weather Definition


TIME
00:00 6.3 5.5 94 33 2   100.12     LegendNANA
01:00 6.6 6.1 97 29 2   100.16     LegendNANA
02:00 6.8 6.3 97 26 4   100.19     LegendNANA
03:00 5.7 5.2 96 16 4   100.23     LegendNANA
04:00 5.8 5.3 97 32 4   100.27     LegendNANA
05:00 3.9 3.4 96 21 3   100.33     LegendNANA
06:00 3.4 3.0 98 30 2   100.39     LegendNANA
07:00 4.9 4.7 98 33 3   100.46     LegendNANA
08:00 8.8 7.3 90 34 3   100.48     LegendNANA
09:00 11.2 8.0 80 29 2   100.51     LegendNANA
10:00 14.2 7.7 65 27 2   100.51     LegendNANA
11:00 16.5 5.0 47 6 3   100.48     LegendNANA
12:00 18.8 5.1 40 5 4   100.47     LegendNANA
13:00 20.1 2.3 31 15 6   100.43     LegendNANA
14:00 21.4 2.4 29 16 7   100.42     LegendNANA
15:00 21.9 1.7 26 18 8   100.43     LegendNANA
16:00 20.8 3.1 31 14 12   100.44     LegendNANA
17:00 19.6 5.6 40 17 6   100.49     LegendNANA
18:00 14.8 7.3 61 21 6   100.56     LegendNANA
19:00 11.8 7.6 76 13 10   100.62     LegendNANA
20:00 11.5 6.6 72 14 8   100.69     LegendNANA
21:00 9.2 6.5 83 30 2   100.73     LegendNANA
22:00 7.2 5.7 90 30 2   100.77     LegendNANA
23:00 7.4 6.8 95 33 4   100.81     LegendNANA

Notes on Data Quality.

Legend

  • E = Estimated
  • M = Missing
  • NA = Not Available
  • ‡ = Partner data that is not subject to review by the National Climate Archives
Date modified: